Location: Gälforsberget
(66.6500°N, 22.4167°E)
Time: 10:48:07
(UTC+00:00)

Cosmos 1805 - Pass Details

Date: 11 April 2026
Orbit: 415 x 416 km, 82.5° (Epoch: 10 May)

Event Time Altitude Azimuth Distance (km) Brightness Sun altitude
Rises 23:02:29 0° 341° (NNW) 2,384 7.8 -14.5°
Reaches altitude 10° 23:04:39 10° 351° (N) 1,515 6.8 -14.5°
Maximum altitude 23:07:43 35° 59° (ENE) 696 4.2 -14.5°
Enters shadow 23:10:42 10° 128° (SE) 1,479 5.2 -14.4°
